Погода в Чантхабури

Таиланд     12°38′05″N   102°05′49″E
темп.,
°C
ветер,
м/с
пор.,
м/с
влажн.,
%
обл.,
%
осадки,
мм/ч
давл.,
гПа
погр.,
м
6 марта, сб
сб601:00+25ю119241 0.1 101349
04:00+24юв119347 0.0 101150
07:00+26юв118572 0.1 101375
10:00+29ю1268100 0.0 1015795
13:00+35зюз124578 0.0 10121326
16:00+32юз34540 0.0 1009786
19:00+26ю12830 0.0 101099
22:00+25ю11870 0.0 101260
7 марта, вс
вс701:00+24ююв11881 0.0 101142
04:00+24юв01890 0.0 101041
07:00+25вюв11876 0.1 101276
10:00+30ю236368 0.0 1014935
13:00+31ююз336280 0.1 1011977
16:00+30юз336245 0.1 1008801
19:00+25ю128525 0.7 101067
22:00+25ююв12881 0.1 101254
8 марта, пн
пн801:00+24ююв11916 0.1 101144
04:00+24ююв119090 0.0 101052
07:00+25юв138795 0.1 1012145
10:00+31ю235933 0.3 10151116
13:00+33ююз225428 1.4 10121298
16:00+30юз346245 2.8 1010946
19:00+26ююз258262 2.8 1011238
22:00+25ююз018955 0.1 101360
9 марта, вт
вт901:00+25юз119145 0.3 101248
04:00+24ююв119226 0.0 101151
07:00+26ююв128459 0.1 1013135
10:00+29ю236869 3.3 1015793
13:00+31юз326245 4.9 10121064
16:00+30ююз336615 3.4 1010864
19:00+26ююз138111 3.5 101169
22:00+25юз01862 0.0 101339
10 марта, ср
ср1001:00+24юв01912 0.3 101245
04:00+25всв008972 0.1 101147
07:00+25юв138668 0.3 1013147
10:00+31ююз226048 1.8 10151066
13:00+31юз326146 3.7 10121041
16:00+30юз216116 1.8 10101008
19:00+26юз12808 1.8 101171
22:00+25сз12860 0.1 101245